CAPE
8 656 973 763 600 334 209 284 299 282 290 280 224 227 195 217 188 168 126 55 49 53 50 55 72 87 96 62 54 22 74 115 157 398 462 241 71 59 93 122 80 5 0
0 320 977 846 758 641 377 258 281 263 235 183 158 152 191 184 218 154 163 143 83 47 61 84 83 132 141 116 83 63 76 115 174 533 370 348 105 0 0 0 0 0 0
0 22 674 927 835 805 611 463 345 281 263 163 129 57 67 59 107 177 160 173 155 106 45 78 114 116 240 345 186 129 112 250 218 320 307 217 209 0 0 0 0 0 0
0 0 436 865 826 873 842 676 517 388 302 199 104 74 29 6 10 32 134 150 207 203 115 75 115 126 143 344 375 170 180 252 391 194 111 92 60 34 0 0 0 0 0
0 0 0 815 823 878 1024 899 744 567 395 292 222 99 59 23 26 56 38 125 201 249 228 188 186 214 211 241 405 403 191 212 319 329 187 70 2 0 0 0 0 0 0
0 0 0 2 657 1006 953 1126 918 834 602 406 393 311 255 149 135 166 187 144 208 292 337 297 288 329 355 386 288 459 369 261 255 251 249 242 217 22 0 0 0 0 0
0 0 0 0 3 428 1054 1078 1164 992 864 748 560 667 594 485 537 514 455 405 373 419 542 554 515 515 551 480 321 307 494 314 283 281 277 269 278 59 0 0 0 0 0
0 0 0 0 0 0 168 1141 1291 1209 1088 1038 921 857 897 850 905 764 757 686 611 638 737 779 730 700 668 615 444 363 444 378 338 293 272 245 182 51 0 0 0 0 0
0 0 0 0 0 0 0 79 1084 1375 1285 1254 1184 1107 966 1078 1129 1080 919 887 814 803 835 894 890 815 821 686 553 621 516 406 425 341 241 225 46 0 0 0 0 0 0
0 0 0 0 0 0 0 0 220 695 1180 1392 1326 1280 1213 1115 1211 1135 1024 958 933 835 838 907 898 884 865 734 625 648 484 447 417 307 199 95 12 0 0 0 0 0 0
0 0 0 0 0 0 0 0 116 414 958 1450 1510 1457 1380 1238 1157 1067 1093 1037 866 778 757 860 850 936 820 653 639 714 595 486 304 127 153 61 0 0 0 0 0 0 0
0 0 0 0 0 0 0 0 1 336 666 1172 1555 1634 1545 1425 1164 1086 1060 927 860 665 715 660 652 731 661 514 544 599 404 344 115 58 57 23 0 0 0 0 0 0 0
0 0 0 0 0 0 0 0 0 56 578 1041 1184 1450 1516 1407 1323 1235 1122 866 790 666 498 544 584 595 548 409 327 314 141 104 51 10 29 2 0 0 0 0 0 0 0
0 0 0 0 0 0 0 9 0 0 126 497 822 1013 1192 1276 1284 1310 1207 906 671 575 449 499 454 451 435 363 251 181 48 19 2 2 0 0 0 0 0 0 0 0 0
0 0 0 0 0 0 0 4 20 0 0 133 324 473 732 1037 1178 1173 1077 879 568 524 327 343 301 300 362 297 181 39 7 0 0 2 1 0 0 0 0 0 0 0 0
0 0 0 0 0 0 0 0 22 38 0 31 161 337 577 798 975 1010 947 751 459 363 230 288 313 312 260 137 18 0 0 1 1 2 3 5 1 2 0 0 0 0 0
0 0 0 0 0 0 0 0 1 6 0 0 47 450 616 728 838 881 804 560 463 292 252 217 218 372 205 6 0 0 1 1 2 1 5 3 2 0 0 0 0 0 0
0 0 0 0 0 0 0 0 0 1 0 0 0 401 746 834 870 671 635 531 296 364 347 288 245 190 41 0 0 1 1 1 3 2 1 0 1 8 0 0 0 0 0
0 0 0 0 0 0 0 0 0 0 0 1 38 444 826 995 862 778 664 438 383 375 356 248 70 48 0 0 0 2 3 3 6 6 5 8 5 0 0 0 0 0 0
0 0 0 0 0 0 0 0 0 0 0 0 0 0 261 614 715 633 535 324 296 165 24 1 3 1 0 0 0 3 3 2 5 6 4 2 1 0 0 0 0 0 0
0 0 0 0 1 0 0 0 0 0 0 0 0 0 0 8 119 95 56 26 0 0 0 0 0 1 1 1 1 2 1 3 7 8 5 3 0 0 0 0 0 0 0
3 0 0 0 0 0 0 0 0 0 0 0 0 1 0 0 0 0 0 0 0 0 0 0 1 2 3 2 3 2 3 9 7 8 10 4 0 0 0 0 0 0 0
0 0 0 0 0 0 0 0 0 0 0 0 0 0 0 0 0 0 0 0 1 0 0 0 0 3 4 5 4 3 1 4 4 3 3 4 2 0 0 0 0 0 0
0 0 0 0 0 0 0 0 0 0 0 0 0 0 0 0 0 0 0 0 0 1 1 1 1 3 5 4 2 0 2 4 8 4 0 0 0 0 0 0 0 0 0
0 0 0 0 0 0 0 0 0 0 0 1 0 0 0 0 0 0 0 0 0 0 0 0 0 0 1 1 2 1 2 4 2 2 5 5 1 3 2 0 0 0 0
0 0 0 0 0 0 0 0 0 0 0 0 1 0 0 0 0 0 0 2 1 1 1 1 0 5 2 4 4 4 3 1 3 5 5 4 5 2 1 0 0 0 0
CIN
-36 -197 -229 -315 -371 -438 -537 -533 -520 -498 -444 -428 -446 -428 -462 -423 -439 -441 -457 -502 -550 -600 -605 -547 -468 -445 -389 -378 -375 -394 -275 -221 -182 -70 -58 -115 -216 -229 -215 -169 -190 -300 -0
-0 -246 -185 -280 -317 -367 -499 -522 -533 -548 -559 -551 -543 -497 -458 -447 -427 -455 -456 -474 -505 -590 -594 -544 -471 -409 -355 -336 -336 -320 -276 -223 -210 -66 -50 -34 -167 -0 -0 -0 -0 -0 -0
-0 -120 -199 -257 -307 -315 -414 -491 -519 -576 -577 -590 -555 -564 -494 -475 -448 -479 -503 -489 -496 -527 -595 -562 -495 -448 -337 -260 -292 -295 -260 -164 -208 -150 -101 -95 -81 -0 -0 -0 -0 -0 -0
-0 -0 -203 -194 -259 -309 -353 -437 -473 -524 -564 -561 -599 -604 -591 -625 -699 -642 -562 -529 -501 -502 -525 -551 -498 -466 -412 -299 -254 -280 -253 -172 -124 -206 -259 -227 -223 -165 -0 -0 -0 -0 -0
-0 -0 -0 -166 -190 -243 -312 -401 -445 -465 -523 -556 -557 -593 -594 -643 -619 -617 -619 -549 -511 -507 -505 -506 -494 -439 -420 -364 -285 -250 -288 -235 -163 -154 -208 -245 -84 -0 -0 -0 -0 -0 -0
-0 -0 -0 -191 -166 -193 -262 -339 -406 -448 -489 -542 -529 -529 -490 -556 -536 -560 -568 -588 -537 -490 -480 -492 -497 -454 -408 -376 -356 -270 -255 -264 -220 -183 -159 -154 -139 -246 -0 -0 -0 -0 -0
-0 -0 -0 -0 -22 -207 -219 -297 -352 -405 -465 -470 -485 -472 -447 -467 -439 -443 -498 -497 -490 -471 -478 -473 -479 -449 -416 -381 -393 -347 -260 -282 -251 -224 -196 -161 -122 -192 -0 -0 -0 -0 -0
-0 -0 -0 -0 -0 -0 -282 -248 -308 -376 -432 -451 -460 -468 -435 -425 -434 -448 -444 -478 -492 -508 -454 -427 -422 -424 -398 -363 -389 -344 -292 -288 -254 -239 -223 -198 -183 -194 -0 -0 -0 -0 -0
-0 -0 -0 -0 -0 -0 -0 -286 -271 -325 -395 -435 -462 -460 -461 -416 -416 -443 -470 -465 -489 -483 -464 -437 -396 -396 -378 -363 -371 -307 -299 -310 -251 -260 -245 -212 -335 -0 -0 -0 -0 -0 -0
-0 -0 -0 -0 -0 -0 -0 -0 -285 -288 -372 -444 -452 -450 -458 -474 -458 -435 -473 -489 -511 -500 -490 -460 -417 -378 -366 -374 -361 -322 -336 -304 -290 -305 -289 -354 -423 -1 -0 -0 -0 -0 -0
-0 -0 -0 -0 -0 -0 -0 -0 -345 -305 -332 -399 -428 -420 -419 -462 -459 -448 -495 -504 -524 -539 -521 -494 -449 -393 -387 -385 -336 -295 -304 -300 -315 -400 -320 -374 -40 -1 -0 -0 -0 -0 -0
-0 -0 -0 -0 -0 -0 -0 -0 -122 -344 -356 -381 -387 -403 -411 -409 -407 -441 -501 -536 -530 -588 -563 -514 -485 -434 -421 -414 -354 -314 -374 -330 -403 -491 -436 -480 -0 -0 -0 -0 -0 -0 -0
-0 -0 -0 -0 -0 -0 -0 -0 -0 -413 -389 -372 -370 -357 -351 -337 -344 -413 -486 -518 -541 -587 -587 -536 -497 -479 -470 -439 -407 -349 -422 -407 -455 -549 -473 -228 -0 -0 -0 -0 -0 -0 -0
-0 -0 -0 -0 -0 -0 -0 -744 -0 -0 -488 -352 -339 -355 -376 -365 -372 -413 -444 -467 -560 -542 -592 -552 -510 -477 -457 -433 -386 -364 -471 -490 -277 -610 -0 -0 -0 -0 -0 -0 -0 -0 -0
-0 -0 -0 -0 -0 -0 -0 -538 -700 -0 -143 -449 -363 -382 -402 -396 -371 -366 -372 -432 -527 -544 -588 -534 -497 -472 -438 -436 -396 -430 -501 -0 -0 -0 -0 -0 -0 -0 -0 -0 -0 -0 -0
-0 -0 -0 -0 -0 -0 -0 -0 -695 -735 -0 -640 -437 -368 -398 -416 -384 -367 -378 -422 -520 -527 -552 -503 -466 -419 -430 -480 -491 -72 -0 -0 -0 -0 -0 -0 -0 -0 -0 -0 -0 -0 -0
-0 -0 -0 -0 -0 -0 -0 -0 -0 -706 -45 -0 -485 -365 -386 -410 -379 -356 -351 -407 -455 -487 -477 -456 -426 -377 -409 -539 -0 -0 -0 -0 -0 -0 -0 -0 -0 -0 -0 -0 -0 -0 -0
-0 -0 -0 -0 -0 -0 -0 -0 -0 -0 -0 -0 -0 -377 -326 -339 -334 -320 -328 -342 -413 -414 -406 -385 -400 -385 -462 -0 -0 -0 -0 -0 -0 -0 -0 -0 -0 -0 -0 -0 -0 -0 -0
-0 -0 -0 -0 -0 -0 -0 -0 -0 -0 -0 -0 -411 -230 -207 -211 -242 -245 -261 -309 -302 -311 -333 -361 -411 -422 -0 -0 -0 -0 -0 -0 -0 -0 -0 -0 -0 -0 -0 -0 -0 -0 -0
-0 -0 -0 -0 -0 -0 -0 -0 -0 -0 -0 -0 -0 -0 -180 -177 -169 -191 -208 -268 -259 -312 -412 -276 -417 -79 -0 -0 -0 -0 -0 -0 -0 -0 -0 -0 -0 -0 -0 -0 -0 -0 -0
-0 -0 -0 -0 -0 -0 -0 -0 -0 -0 -0 -0 -0 -0 -0 -180 -164 -240 -291 -328 -0 -0 -0 -0 -0 -0 -0 -0 -0 -0 -0 -0 -0 -0 -0 -0 -0 -0 -0 -0 -0 -0 -0
-80 -0 -0 -0 -0 -0 -0 -0 -0 -0 -0 -0 -0 -0 -0 -0 -0 -0 -0 -0 -0 -0 -0 -0 -0 -0 -0 -0 -0 -0 -0 -0 -0 -0 -0 -0 -0 -0 -0 -0 -0 -0 -0
-0 -0 -11 -0 -0 -0 -0 -0 -0 -0 -0 -0 -0 -0 -0 -0 -0 -0 -0 -0 -0 -0 -0 -0 -0 -0 -0 -0 -0 -0 -0 -0 -0 -0 -0 -0 -0 -0 -0 -0 -0 -0 -0
-0 -0 -0 -0 -0 -0 -0 -0 -0 -0 -0 -0 -0 -0 -1 -0 -0 -0 -0 -0 -0 -0 -0 -0 -0 -0 -0 -0 -0 -0 -0 -0 -0 -0 -0 -0 -0 -0 -0 -0 -0 -0 -0
-0 -0 -0 -0 -0 -0 -0 -0 -0 -0 -10 -6 -0 -0 -0 -0 -0 -0 -0 -0 -0 -0 -0 -0 -0 -0 -0 -0 -0 -0 -0 -0 -0 -0 -0 -0 -0 -0 -0 -0 -0 -0 -0
-0 -0 -0 -0 -0 -0 -0 -0 -0 -0 -0 -0 -22 -0 -0 -0 -0 -0 -0 -0 -0 -0 -0 -0 -0 -0 -0 -0 -0 -0 -0 -0 -0 -0 -0 -0 -0 -0 -0 -0 -0 -0 -0
Wind_Speed
37 34 27 23 25 23 18 18 17 18 17 18 19 17 19 15 15 16 17 16 15 14 12 10 8 6 5 4 4 2 2 3 8 10 12 13 15 15 16 15 13 14 12
42 38 34 27 26 23 21 19 20 18 19 17 17 13 14 17 18 17 17 17 17 16 14 13 11 10 8 8 7 5 7 6 4 7 9 9 13 17 17 15 13 13 12
47 43 36 32 28 27 24 22 22 20 20 15 13 14 12 15 14 16 17 20 19 18 17 16 14 12 11 12 10 8 7 6 5 4 9 11 10 13 17 16 14 13 12
51 47 42 36 33 29 26 23 21 21 19 17 16 18 17 16 20 16 17 18 19 20 19 18 16 15 14 13 13 10 9 9 8 9 11 13 11 13 14 16 14 13 12
54 50 45 40 35 32 30 25 24 23 22 21 19 19 18 16 13 14 15 17 19 20 20 19 18 18 16 15 14 13 12 11 11 10 11 13 14 13 14 12 11 13 14
52 52 47 42 41 35 33 30 27 25 24 24 23 23 22 17 15 15 16 16 17 18 19 20 19 19 18 17 17 14 15 14 14 13 13 13 13 13 13 13 9 10 14
51 51 48 46 44 40 34 33 29 27 26 26 26 25 24 21 20 18 16 15 16 17 20 20 20 20 19 18 17 17 16 16 16 15 14 14 14 14 14 12 10 14 12
52 52 49 46 44 41 37 33 32 30 28 27 28 27 26 24 22 20 19 18 16 17 16 18 19 20 20 20 20 19 19 17 17 17 16 16 15 14 14 13 9 12 13
54 53 51 47 45 40 37 33 32 32 30 29 28 28 27 26 25 23 23 21 19 18 17 17 19 19 20 21 21 21 21 21 20 18 19 19 17 16 15 12 11 9 12
56 52 51 48 47 45 40 35 33 32 31 31 30 29 29 28 27 28 26 25 23 21 19 18 18 19 20 21 22 22 23 23 23 21 20 19 19 17 15 13 11 15 17
51 50 50 46 45 44 44 42 38 36 34 35 33 32 30 30 31 32 29 28 26 25 23 21 19 18 19 20 22 23 24 24 25 24 23 21 19 19 18 15 13 15 17
43 38 38 39 41 44 45 45 42 39 37 35 35 33 29 31 34 36 32 30 29 28 26 24 22 21 20 19 21 23 25 26 26 26 25 23 21 20 19 17 15 16 15
41 38 34 36 36 36 39 41 41 40 38 35 35 36 33 35 31 31 34 33 33 29 28 27 25 24 22 21 20 22 23 25 26 26 25 25 23 20 19 19 15 16 15
29 34 34 34 35 36 39 40 43 41 37 33 33 35 35 36 35 32 34 35 34 34 31 30 28 26 25 23 22 21 22 22 24 24 25 25 25 21 19 16 19 15 14
23 25 31 34 34 36 37 39 41 43 40 39 37 36 34 34 35 34 34 37 36 34 33 32 32 29 26 24 22 21 21 22 21 22 23 21 26 24 20 17 13 13 14
23 23 25 28 33 35 37 40 41 45 45 46 44 38 36 34 34 34 35 35 37 34 33 32 30 29 27 25 22 21 21 21 19 20 19 20 21 11 18 16 14 15 12
22 22 24 26 28 32 37 41 42 40 44 47 46 41 37 33 31 33 35 36 35 33 32 31 29 28 27 24 22 20 21 19 18 19 18 18 17 14 16 14 14 14 12
24 24 24 24 26 29 31 32 34 36 40 43 44 39 37 36 32 32 35 37 35 34 33 31 29 28 26 23 21 19 19 17 17 18 19 16 15 12 16 13 13 14 11
20 23 24 25 25 27 27 26 26 28 31 35 37 37 35 35 33 32 33 34 32 31 29 26 24 23 25 22 20 18 18 17 14 13 13 14 11 11 11 12 12 11 10
21 22 23 25 25 26 25 23 22 24 26 27 27 29 29 29 30 29 29 30 30 28 24 22 21 22 23 20 19 19 19 18 14 13 13 14 12 13 12 13 12 11 9
21 21 20 21 24 25 26 24 22 22 24 25 25 24 22 24 25 25 25 26 26 24 23 22 21 22 22 20 19 19 20 18 16 16 15 15 14 16 14 13 12 11 7
24 21 21 22 22 23 23 23 22 23 24 23 23 22 21 22 20 22 23 23 24 23 23 22 22 23 23 21 19 19 20 16 16 17 16 16 15 15 13 11 9 9 6
22 23 27 28 26 24 24 28 27 26 25 23 22 21 20 19 19 22 23 23 23 22 23 22 22 24 23 21 18 18 16 16 16 15 14 11 13 13 12 14 11 10 8
25 26 25 26 29 28 26 30 30 28 28 26 24 23 21 21 20 21 22 22 21 21 21 21 21 22 21 20 18 16 15 13 12 10 11 12 10 11 13 12 16 10 9
31 30 30 30 30 28 29 28 31 29 31 30 27 25 24 23 22 22 23 21 20 20 21 21 21 19 22 21 17 15 15 15 13 12 11 12 12 13 12 13 17 12 8
35 35 34 35 35 35 34 32 29 28 31 28 27 26 25 27 25 24 22 20 22 21 22 21 19 20 21 16 17 16 16 14 14 13 15 16 15 14 14 14 13 10 11
Wind_Direction
250 249 240 231 236 234 221 196 191 193 188 185 187 192 193 212 211 209 204 206 219 213 213 217 216 222 224 217 197 246 277 297 323 326 332 339 343 340 336 340 349 355 10
248 248 244 237 228 221 213 207 192 192 190 194 194 226 220 239 241 242 228 221 224 220 219 221 225 223 231 228 221 234 290 289 290 317 332 332 334 333 331 334 344 352 358
246 246 244 239 232 224 218 207 198 196 193 197 207 248 237 257 231 219 224 211 217 222 219 226 235 232 228 218 218 226 235 259 272 283 320 326 328 331 332 332 334 342 351
246 246 245 241 237 230 224 220 215 210 207 207 209 195 201 209 200 217 235 232 225 220 224 230 231 237 235 226 222 231 234 259 249 282 295 310 328 325 327 333 337 343 347
244 245 245 243 240 238 235 227 226 225 223 214 212 209 206 210 239 236 232 231 234 228 229 232 237 239 237 227 225 230 231 241 253 258 287 295 305 317 322 325 328 334 338
244 245 246 246 245 243 240 238 233 224 222 220 220 219 214 220 233 222 222 221 229 233 230 231 231 233 231 228 227 230 231 231 249 256 267 274 287 295 307 317 323 319 328
245 243 244 245 245 244 243 242 237 231 225 223 224 222 223 222 220 222 223 229 227 230 220 221 226 232 231 237 238 234 235 236 241 253 258 270 274 291 295 303 309 311 311
245 243 243 245 246 246 244 242 240 242 237 228 227 221 228 233 229 232 233 230 229 224 237 229 233 235 242 241 243 243 241 241 239 250 261 266 273 279 284 290 294 313 313
246 244 244 243 246 248 245 241 244 246 242 235 230 225 226 227 230 231 232 235 240 246 241 235 233 238 240 241 245 246 243 247 248 247 257 267 273 277 279 280 273 291 297
246 246 245 245 246 249 249 247 245 244 241 236 239 238 231 229 234 245 243 240 241 247 244 239 239 243 243 241 241 248 254 248 253 255 251 258 268 270 271 266 269 287 297
248 250 250 251 250 251 251 253 251 250 248 247 245 244 242 240 244 247 245 244 247 247 246 241 242 242 245 246 245 249 253 250 255 255 252 253 258 265 268 268 276 278 292
251 253 254 254 254 252 253 254 255 253 249 249 247 244 242 247 250 249 245 248 247 249 246 248 248 250 252 253 250 251 255 254 255 255 253 252 257 260 260 265 276 271 283
246 250 255 256 258 259 258 257 256 254 252 250 247 249 249 252 248 243 248 249 250 250 249 247 246 249 251 255 258 260 262 257 256 254 251 250 250 254 260 264 268 268 278
255 251 256 261 262 264 263 263 260 257 254 250 249 249 250 251 251 250 248 249 251 252 252 250 251 253 257 259 262 262 263 262 259 253 252 252 250 245 248 258 277 265 271
266 264 263 265 269 269 270 267 265 261 258 254 252 252 253 253 254 255 252 252 252 252 254 255 256 256 256 258 260 263 264 264 259 259 256 249 252 241 238 241 250 255 266
274 276 278 279 275 276 275 270 268 265 261 257 256 255 256 256 255 255 252 252 253 254 254 254 252 253 257 256 254 258 263 266 260 257 258 262 266 237 245 238 244 244 242
286 285 287 287 288 286 281 273 270 270 264 259 257 255 254 253 253 254 252 251 252 254 254 254 252 253 255 252 249 253 265 263 260 257 256 263 251 249 265 260 251 245 253
282 284 288 294 297 299 292 285 279 275 272 265 258 255 252 250 252 252 251 252 253 253 254 254 253 254 256 249 248 250 261 260 260 254 254 237 252 247 239 248 223 243 256
297 289 299 295 301 307 305 297 293 284 281 272 264 258 251 248 249 250 250 252 253 254 254 254 251 250 258 248 242 246 258 262 261 252 242 231 237 220 193 194 213 236 263
297 300 306 293 297 298 305 306 302 297 283 282 273 263 256 249 248 249 249 251 252 253 254 254 253 254 258 250 242 245 260 261 259 263 252 224 229 199 198 209 208 225 242
298 296 304 315 296 297 298 301 306 302 302 288 281 276 269 257 251 249 250 249 250 254 258 259 261 259 260 254 238 244 256 253 256 253 247 238 213 201 209 215 221 221 210
295 293 289 291 303 301 298 296 298 303 303 306 289 281 277 267 263 255 253 251 251 256 260 261 264 266 265 261 249 248 257 249 255 257 250 243 217 219 227 229 210 192 218
316 297 282 285 294 299 301 294 288 296 300 304 298 285 280 277 272 264 258 256 259 260 262 261 263 266 267 266 258 252 249 252 260 264 256 221 228 232 230 209 201 204 241
311 310 305 293 288 288 295 292 290 288 288 293 298 291 289 280 277 270 265 263 263 265 264 262 263 264 265 261 258 249 249 248 255 247 238 230 222 211 230 235 236 248 251
301 302 299 296 292 299 289 293 288 291 285 285 291 289 288 283 279 273 271 271 272 269 266 266 264 264 262 257 248 239 239 241 240 237 229 216 220 229 232 222 245 250 257
301 296 294 291 288 287 288 289 292 297 290 287 286 284 287 282 278 275 275 280 275 275 275 273 267 269 272 259 248 248 246 236 217 226 217 222 228 229 232 234 236 238 239